Location: *
(31.2983°S, 151.4094°E)
Time: 14:02:24
(UTC+00:00)

Cosmos 2208 Rocket - Pass Details

Date: 25 August 2019
Orbit: 755 x 805 km, 74.0° (Epoch: 22 October)

Event Time Altitude Azimuth Distance (km) Brightness Sun altitude
Rises 19:01:04 0° 203° (SSW) 3,314 7.0 -17.3°
Reaches altitude 10° 19:03:31 10° 207° (SSW) 2,384 6.3 -16.8°
Maximum altitude 19:08:46 52° 282° (WNW) 993 4.2 -15.6°
Drops below altitude 10° 19:14:02 10° 357° (N) 2,377 6.6 -14.5°
Sets 19:16:28 0° 2° (N) 3,302 7.4 -14.0°
